Regional Weather Roundup
Issued by NWS Pendleton, OR

Home | Current Version | Previous Version | Text Only | Print | Product List | Glossary On
Versions: 1 2 3 4 5 6 7 8 9 10 11 12 13 14 15 16 17 18 19 20 21 22 23 24 25 26 27 28 29 30 31 32 33 34 35 36 37 38 39 40 41 42 43 44 45 46 47 48 49 50
000
ASUS46 KPDT 201525
RWRPDT
PENDLETON REGIONAL WEATHER ROUNDUP
NATIONAL WEATHER SERVICE PENDLETON OREGON
700 AM PST SAT DEC 20 2014

NOTE: FAIR INDICATES FEW OR NO CLOUDS BELOW 12,000 FEET WITH NO
SIGNIFICANT WEATHER AND/OR OBSTRUCTIONS TO VISIBILITY.

# INDICATES UNOFFICIAL STATION AND DATA

WAZ520-201610-
EAST SLOPES OF WASHINGTON CASCADES

CITY            SKY/WX      TMP DP  RH  WIND    PRES   REMARKS
#BULLFROG 2SW   N/A         36  37  100 CALM    27.35F
#BUMPING DAM    N/A         31  N/A N/A E7      N/A
#CLE ELUM HS    N/A         35  34  96  S1      29.74F
#CLE ELUM 2NW   N/A         34  34  100 NE1     N/A
#CLE ELUM LAKE  N/A         33  33  100 CALM    29.78F
#CLIFFDEL 2NW   N/A         32  32  100 SE1     N/A
#GLENWOOD       N/A         35  34  96  CALM    29.81F
#MANASTASH CYN  N/A         32  30  92  CALM    29.74F
#NELSON         N/A         33  32  96  CALM    29.81F
#NELSON 3SW     N/A         31  30  96  CALM    30.01F
#NILE           N/A         34  34  100 NE1     29.07F
#RONALD 2NW     N/A         35  34  96  CALM    29.62F
#SNOWDEN        N/A         37  35  92  CALM    N/A
#TEANAWAY 4NE   N/A         38  37  96  E1      N/A
#TROUT LAKE HS  N/A         34  34  100 SW1     N/A
#TROUT LAKE 1NE N/A         33  32  96  CALM    29.83F
$$

WAZ521-201610-
SIMCOE HIGHLANDS

CITY            SKY/WX      TMP DP  RH  WIND    PRES   REMARKS
#BICKLETON HS   N/A         37  35  92  SW5     34.25S
#CENTERVILLE 4W N/A         39  37  92  E5      29.53F
#CENTERVILLE 1SWN/A         37  35  92  CALM    29.80F
#GOLDENDALE     N/A         39  38  96  E2      N/A
#GOLDENDALE 1NE N/A         39  39  100 N3      N/A
#GOLDENDALE 1S  N/A         38  37  96  E2      29.78S
#GOLDENDALE 5WNWN/A         40  38  92  E3      29.79F
#GOODNOE HILLS  N/A         38  36  92  CALM    N/A
#LYLE 6NE       N/A         38  37  96  CALM    29.79F
$$

WAZ026-201610-
KITTITAS VALLEY

CITY            SKY/WX      TMP DP  RH  WIND    PRES   REMARKS
ELLENSBURG AP   CLOUDY      40  36  85  E9      29.77F
#ELLENSBURG CWU N/A         37  36  96  E2      29.77F
#ELLENSBURG 3NE N/A         38  36  92  E7      29.79F
#ELLENSBURG     N/A         39  39  100 E1      N/A
#ELLENSBURG 1E  N/A         33  32  96  CALM    N/A
#KITTITAS 4N    N/A         38  35  89  E7      29.82F
#KITTITAS 3S    N/A         32  31  96  CALM    29.81F
#THORP 6N       N/A         36  35  96  E12     29.83F WCI 28
$$

WAZ027-201610-
YAKIMA VALLEY

CITY            SKY/WX      TMP DP  RH  WIND    PRES   REMARKS
YAKIMA AIRPORT  LGT RAIN    38  36  92  CALM    29.80F FOG
YAKIMA-VAGABOND RAIN SHWRS  36  36  100 E2      29.80F VSB 7/8
#DONALD 2NE     N/A         37  35  92  CALM    28.65F
#GRANDVIEW      N/A         42  38  86  CALM    29.85F
#MABTON         N/A         41  40  96  CALM    29.81F
#MOXEE 2E       N/A         40  34  79  CALM    29.88F
#NACHES 2SW     N/A         38  37  96  S1      29.79F
#OUTLOOK DOT    N/A         N/A N/A N/A CALM    N/A
#SELAH 8E       N/A         40  39  96  S8      N/A
#TERRACE HTS    N/A         36  35  96  CALM    29.80F
#WAPATO 4NE     N/A         37  35  92  CALM    28.65F
#WEST VALLEY    N/A         38  36  92  CALM    29.82F
#W YAKIMA       N/A         38  37  96  CALM    29.83F
#WHITE SWAN 5E  N/A         35  34  96  CALM    29.85S
#WILEY CITY 3W  N/A         36  33  89  CALM    29.82F
$$

WAZ028-201610-
LOWER COLUMBIA BASIN...WASHINGTON

CITY            SKY/WX      TMP DP  RH  WIND    PRES   REMARKS
PASCO           CLOUDY      39  39  100 N3      29.84F
PROSSER AWOS    N/A         41  41  100 NE9     29.84F
RICHLAND AWOS   CLOUDY      37  N/A N/A CALM    29.85F
#BASIN CITY 5SW N/A         39  38  96  E2      29.84F
#CONNELL 5N     N/A         40  38  92  CALM    29.86F
#CONNELL 5NW    N/A         39  37  92  E1      29.82F
#ELTOPIA        N/A         42  41  96  CALM    29.80F
#ELTOPIA 6NW    N/A         40  38  92  E7      28.79F
#KAHLOTUS       N/A         38  36  92  S7      29.88F
#KENNEWICK      N/A         36  37  100 CALM    27.35F
#KENNEWICK 3S   N/A         40  38  92  CALM    29.84F
#PASCO-BROADMOORN/A         39  37  92  CALM    29.75F
#PATERSON       N/A         40  38  92  CALM    29.82F
#PROSSER        N/A         40  37  89  CALM    29.83F
#SAGEMOOR 2W    N/A         41  39  93  CALM    29.70F
#TOUCHET 2S     N/A         39  38  96  W2      29.84F
#WEST PASCO     N/A         40  37  89  CALM    29.83
$$

WAZ029-201610-
FOOTHILLS OF THE BLUES...WASHINGTON

CITY            SKY/WX      TMP DP  RH  WIND    PRES   REMARKS
WALLA WALLA AP  LGT RAIN    49  38  66  S13     29.84F WCI 44
#COLLEGE PLACE  N/A         47  35  63  SE7     29.86F
#DAYTON SCHOOL  N/A         44  36  73  E2      29.86F
#LOWDEN 2SE     N/A         48  42  80  SE3     29.81F
#PLEASANT VIEW 1N/A         39  37  92  CALM    29.92F
#PRESCOTT       N/A         42  40  93  CALM    29.86F
#SUDBURY        N/A         46  N/A N/A CALM    N/A
#WHITMAN COLLEGEN/A         49  40  71  E7      29.90F
#WAITSBURG 5S   N/A         44  39  82  S10     29.95F
#WALLA WALLA 5E N/A         49  40  71  S13     N/A    WCI 44
#WALLA WALLA U  N/A         50  42  74  S2      29.85F
#WHITMAN MISSIONN/A         49  42  77  S3      29.86F
$$

WAZ030-201610-
BLUE MOUNTAINS...WASHINGTON

CITY            SKY/WX      TMP DP  RH  WIND    PRES   REMARKS
#DIXIE 5SE      N/A         40  34  79  S14     29.76F WCI 32
$$

ORZ009-041-WAZ024-201610-
COLUMBIA RIVER GORGE

CITY            SKY/WX      TMP DP  RH  WIND    PRES   REMARKS
HOOD RIVER AP   LGT RAIN    34  36  100 CALM    29.81F
THE DALLES AP   CLOUDY      41  39  93  S3      29.82F FOG
#ARLINGTON AIRPON/A         38  37  96  CALM    30.01S
#ARLINGTON HS   N/A         39  37  92  CALM    29.75F
#CELILO DOT     N/A         42  39  89  NE5     N/A
#LYLE           N/A         42  41  96  E1      29.84F
#MARYHILL 2W    N/A         41  41  100 CALM    N/A
#MOSIER 1S      N/A         39  38  96  CALM    29.82F
#MURDOCK        N/A         42  42  100 CALM    29.83F
#RUFUS DOT      N/A         41  38  89  SE6     N/A

$$

ORZ510-201610-
NORTH CENTRAL OREGON

CITY            SKY/WX      TMP DP  RH  WIND    PRES   REMARKS
#CHENOWITH 1W   N/A         37  37  100 E15     N/A    WCI 28
#COW CYN RST AREN/A         41  36  82  S9      N/A
#DUFUR 9E       N/A         40  38  92  S12     29.85F WCI 33
#GRASS VALLEY   N/A         38  38  100 CALM    N/A
#GRASS VALLEY 1SN/A         39  38  96  CALM    29.84F
#KENT DOT       N/A         41  34  76  S14     N/A    WCI 33
#MAUPIN SCHOOL  N/A         39  37  92  CALM    29.80F
#MORO SCHOOL    N/A         37  37  100 CALM    29.80F
#SHANIKO 5WSW   N/A         38  33  82  S23     N/A    WCI 27
#SHANIKO 4NW    N/A         38  36  92  S23     29.74F WCI 27
#TYGH VALLEY 2NEN/A         38  37  96  CALM    29.81F
#WAPANITIA AIRPON/A         37  36  96  CALM    29.82F
#WASCO AIRPORT  N/A         38  36  92  E6      N/A
#WASCO 5NE      N/A         37  36  96  CALM    29.84F
$$

ORZ511-201610-
CENTRAL OREGON

CITY            SKY/WX      TMP DP  RH  WIND    PRES   REMARKS
BEND AIRPORT    PTCLDY      41  34  76  S16     29.83F WCI 33
MADRAS AIRPORT  CLOUDY      43  37  79  S13     29.81F WCI 36
PRINEVILLE AP   CLOUDY      41  36  82  S9      29.84F
REDMOND AIRPORT CLOUDY      43  34  70  S17G26  29.80F WCI 35
#BEND 1SW       N/A         36  35  96  SW3     N/A
#BEND-AWBREY    N/A         38  36  92  SW15    29.84F WCI 29
#BEND-KIM LN    N/A         38  36  92  S2      29.78F
#CROOKED RVR RANN/A         44  37  76  SW2     29.81F
#CULVER         N/A         44  37  76  SE12    29.75F WCI 38
#LAKE BILLY CHINN/A         42  28  57  S6      29.89F
#POWELL BUTTE 3EN/A         41  35  79  SE5     N/A
#POWELL BUTTE   N/A         43  34  70  W5      29.47F
#PRINEVILLE 3N  N/A         42  38  86  SE5     29.81F
#WARM SPRINGS   N/A         38  37  96  CALM    29.78F


ORZ509-201610-
EAST SLOPES OF OREGON CASCADES

CITY            SKY/WX      TMP DP  RH  WIND    PRES   REMARKS
#BLACK BUTTE RNCN/A         36  36  100 CALM    29.83F
#CAMP SHERMAN   N/A         34  32  92  CALM    29.83F
#LA PINE DOT    N/A         36  34  92  SE2     N/A
#LA PINE 4NW    N/A         35  32  89  CALM    29.96S
#LAVA BUTTE DOT N/A         35  33  92  SE6G29  N/A
#MT BACHELOR-MIDN/A         27  26  96  NE31G45 N/A    WCI 11
#SISTERS AIRPOR N/A         36  36  100 N2      30.17S
#SISTERS ODOT   N/A         36  N/A N/A E1      N/A
#SISTERS 1NW    N/A         36  34  92  E3      N/A
#SISTERS 3N     N/A         36  34  92  E5      29.84S
#SUNRIVER       N/A         36  35  96  SW3     29.79R
#TUMALO 3W      N/A         38  36  92  SE9     29.70F
#WANOGA BUTTE D N/A         29  29  100 W10     N/A

$$

ORZ044-201610-
LOWER COLUMBIA BASIN...OREGON

CITY            SKY/WX      TMP DP  RH  WIND    PRES   REMARKS
HERMISTON       CLOUDY      44  40  86  E6      29.81F
#BOARDMAN 3W    N/A         39  38  96  W2      29.56S
#BOARDMAN 8SW   N/A         39  37  92  CALM    29.83F
#ECHO 8SW       N/A         39  35  85  CALM    29.78F
#IONE SCHOOL    N/A         46  32  58  CALM    29.80F
#IRRIGON 4NW    N/A         38  38  100 S1      N/A
#UMATILLA SCHOOLN/A         40  40  100 CALM    29.84F
#UMATILLA       N/A         44  40  86  CALM    29.79F
$$

ORZ507-201610-
NORTHERN FOOTHILLS OF THE BLUES

CITY            SKY/WX      TMP DP  RH  WIND    PRES   REMARKS
PENDLETON AIRPT CLOUDY      44  38  79  SE6     29.82F
#ADAMS 3WNW     N/A         43  39  86  CALM    29.85F
#ATHENA         N/A         44  39  82  S6      29.88F
#HELIX SCHOOL   N/A         41  39  93  SE9     29.86F
#HELIX 3N       N/A         41  39  93  SE16    29.80F WCI 33
#HELIX 6SW      N/A         42  40  93  E5      29.82F
#HOLDMAN 5SE    N/A         44  41  89  CALM    29.82F
#HOLDMAN 6E     N/A         42  40  93  SW2     29.66F
#M-F GROVE ELEM N/A         48  37  65  E5      29.81F
#M-FREEWATER 5SEN/A         47  39  74  E12     29.85F WCI 42
#PENDLETON DNTN N/A         40  39  96  CALM    28.64S
#PDT AQUATIC CTRN/A         41  40  96  CALM    29.82F
#PENDLETON 5NE  N/A         44  41  89  CALM    29.79F
#PENDLETON 7NW  N/A         45  39  79  SE6     26.70S
#PILOT ROCK     N/A         48  35  60  SE7     29.83F
#TUTUILLA       N/A         46  39  76  S9      29.84F
#UMAPINE 2E     N/A         48  41  77  SE6     29.81F
#WESTON SCHOOL  N/A         44  35  70  SW12G26 29.82F WCI 38

$$

ORZ508-201610-
SOUTHERN FOOTHILLS OF THE BLUES

CITY            SKY/WX      TMP DP  RH  WIND    PRES   REMARKS
LEXINGTON       PTCLDY      48  37  65  S21     29.81F WCI 41
#AJAX           N/A         42  34  73  S5      29.73F
#CONDON SCHOOL  N/A         42  38  86  CALM    29.77S
#CONDON 5W      N/A         39  35  85  S12     29.75F WCI 32
#FOSSIL SCHOOL  N/A         42  38  86  SE1     29.80S
#HEPPNER EOC    N/A         46  36  68  SE2     29.78F
#HEPPNER 4NE    N/A         43  36  76  S1      29.83F
#LEXINGTON 2SE  N/A         50  39  66  SE15    29.75F
#MIKKALO        N/A         37  34  89  CALM    29.80S
#OLEX 4N        N/A         37  36  96  NE1     29.81S
#RUGGS 5NE      N/A         42  35  76  VRB7    29.94S
#RUGGS 2SW      N/A         42  36  79  S14G28  29.85F WCI 35

$$

ORZ502-503-201610-
BLUE MOUNTAINS

CITY            SKY/WX      TMP DP  RH  WIND    PRES   REMARKS
MEACHAM         LGT RAIN    35  33  92  CALM    29.84F FOG
#BATTLE MTN DOT N/A         32  32  100 SE9     N/A
#HARDMAN 10S    N/A         32  31  96  SE3     30.02F
#HEPPNER 15SE   N/A         36  34  92  E3      29.70F
#LADD CYN SMT   N/A         36  32  85  SE15    N/A    WCI 27
#LADD CREEK ODOTN/A         38  35  89  SW7     N/A
#LONG CREEK HS  N/A         39  37  92  CALM    29.78F
#N POWDER DOT   N/A         37  35  92  SE15    N/A    WCI 28
#PIKES PEAK     N/A         40  34  79  S23G35  27.99S WCI 30
#TROY SCHOOL    N/A         35  34  96  CALM    29.82F
#UKIAH          N/A         33  32  96  CALM    29.98F
#WESTON 4E      N/A         38  36  92  SE9     29.83F
$$

ORZ505-201610-
JOHN DAY BASIN

CITY            SKY/WX      TMP DP  RH  WIND    PRES   REMARKS
JOHN DAY        CLOUDY      38  35  89  NE6     29.90F
#JOHN DAY KJDY  N/A         39  37  92  NE3     29.87F
#DAYVILLE SCHOOLN/A         32  29  89  CALM    30.16S
#MONUMENT HS    N/A         36  34  92  CALM    29.88F
#MT. VERNON 5SE N/A         36  34  92  CALM    29.84S
#WINLOCK        N/A         39  37  92  N2      29.92F
$$

ORZ506-201610-
OCHOCO AND JOHN DAY HIGHLANDS

CITY            SKY/WX      TMP DP  RH  WIND    PRES   REMARKS
#BUCK CREEK DOT N/A         37  37  100 SE9     N/A
#HORSE RIDGE DO N/A         38  33  82  SE8     N/A
#KEYES SMT DOT  N/A         37  32  82  CALM    N/A
#PRAIRIE CITY   N/A         33  29  85  CALM    30.04F
#SENECA         N/A         33  N/A N/A CALM    N/A
$$

ORZ049-201610-
GRANDE RONDE VALLEY

CITY            SKY/WX      TMP DP  RH  WIND    PRES   REMARKS
LA GRANDE       CLOUDY      41  30  65  S12     29.88F WCI 34
#COVE           N/A         43  37  79  SE2     30.03S
#COVE SCHOOL    N/A         44  36  73  S1      29.85F
#COVE 6NW       N/A         40  35  82  CALM    29.97F
#ELGIN 3N       N/A         38  34  85  CALM    29.61F
#ELGIN 1E       N/A         39  35  85  CALM    N/A
#IMBLER SCHOOL  N/A         39  35  85  S3      29.85F
#ISLAND CITY 4N N/A         46  45  96  CALM    29.70F
#LADD CYN DOT   N/A         40  35  82  SW21G35 N/A    WCI 30
#UNION 1S       N/A         42  36  79  SE3     29.85F
$$

ORZ050-201610-
WALLOWA COUNTY

CITY            SKY/WX      TMP DP  RH  WIND    PRES   REMARKS
JOSEPH AIRPORT  CLOUDY      30  28  92  CALM    29.87F
#ENTERPRISE AP  N/A         28  24  85  CALM    29.83F
#ENTERPRISE HS  N/A         29  27  92  CALM    29.90F
#IMNAHA SCHOOL  N/A         34  32  92  CALM    29.91F
#IMNAHA 10S     N/A         44  33  65  W10     29.88F
#JOSEPH 3N      N/A         28  26  92  CALM    29.89F
#JOSEPH 3W      N/A         30  27  88  CALM    29.69F
#LOSTINE        N/A         29  28  96  CALM    29.78F
#MT HOWARD 8000 N/A         24  21  88  S14G26  29.75S WCI 12
#PROMISE 1S     N/A         31  30  96  CALM    30.06F
#SHEEP RDG 7000 N/A         27  24  88  CALM    29.95F
#WALLOWA SCHOOL N/A         29  28  96  CALM    30.95F



$$



USA.gov is the U.S. government's official web portal to all federal, state and local government web resources and services.